www.pogodaiklimat.ru

Погода и климат >> Архив погоды >> Россия >> Калмыкия >> Лагань


ПОГОДА в Лагани

  • Прогноз погоды в Лагани
  • Монитор погоды в Лагани

АРХИВ ПОГОДЫ в Лагани

Время (UTC), дата Ветер
(напр.,м/с)
 
Видим.   Явления Облачность Т
(С)
Тd
(С)
f
(%)
Тe
(С)
Тes
(С)
Комфортность P
(гПа)
Po
(гПа)
Тmin
(С)
Tmax
(С)
R
(мм)
R24
(мм)
S
(см)
06 13.06 СВ 5 20 км 8/0
[Ac cuf Ci sp]
+32.8 +6.4 19 +31 +35 жарко 1010.5 1013.0
09 13.06 В 6
{12}
20 км 6/0
[Ac cuf Ci sp]
+33.1 +9.6 24 +32 +38 жарко 1010.5 1013.0
12 13.06 В 5
{10}
20 км 5/0
[Ac cuf Ci sp]
+33.1 +11.6 27 +33 +38 жарко 1010.0 1012.5
15 13.06 ЮВ 3 20 км 3/0
[Ac cuf Ci sp]
+31.9 +11.4 28 +32 +33 жарко 1009.6 1012.1 +33.6
18 13.06 штиль 0 20 км 4/0
[Ac cuf Ci sp]
+23.2 +15.7 63 +28 +28 душно 1010.0 1012.5
21 13.06 С 4
{10}
20 км 4/0
[Ac cuf Ci sp]
+25.3 +11.4 42 +27 +27 жарко 1011.3 1013.9
00 14.06 СВ 5
{10}
20 км ясно +22.1 +13.1 57 +25 +25 комфорт 1013.0 1015.5
03 14.06 СВ 5
{10}
20 км 4/0
[Ac trans Ci fib]
+21.1 +10.4 50 +23 +24 комфорт 1014.9 1017.4 +19.9
06 14.06 СВ 6
{13}
20 км ясно +24.0 +10.1 41 +25 +30 комфорт 1016.5 1019.1
09 14.06 СВ 5
{12}
20 км ясно +26.3 +6.0 27 +26 +36 жарко 1017.1 1019.7
12 14.06 В 4
{10}
20 км ясно +25.7 +7.7 32 +26 +34 жарко 1016.9 1019.4
15 14.06 В 4 20 км ясно +24.0 +10.2 42 +25 +26 комфорт 1016.6 1019.2 +26.4
18 14.06 В 1 20 км ясно +19.3 +11.1 59 +21 +21 комфорт 1017.2 1019.8
21 14.06 штиль 0 20 км ясно +16.1 +10.9 71 +16 +16 1016.3 1018.9
00 15.06 штиль 0 10 км ясно +14.3 +12.0 86 +14 +14 1016.1 1018.7
03 15.06 СВ 2 20 км 3/0
[Ci fib]
+19.8 +11.6 59 +22 +24 комфорт 1016.2 1018.8 +13.9
06 15.06 ЮВ 2 20 км ясно +26.6 +6.9 29 +26 +39 жарко 1016.2 1018.7
09 15.06 ЮВ 5 20 км ясно +27.9 +4.2 22 +26 +37 жарко 1015.2 1017.8
12 15.06 ЮВ 5 20 км ясно +27.7 +8.0 29 +27 +33 жарко 1013.7 1016.2
15 15.06 ЮВ 6 20 км ясно +25.5 +10.3 38 +26 +27 жарко 1012.9 1015.5 +28.3
18 15.06 Ю 3 20 км ясно +19.1 +12.1 64 +20 +20 1012.8 1015.4
21 15.06 ЮЗ 3 20 км 3/0
[Ci fib]
+17.7 +12.0 69 +18 +18 1012.2 1014.9
00 16.06 ЮЗ 2 20 км 4/0
[Ci fib]
+16.6 +12.8 78 +17 +17 1011.2 1013.8
03 16.06 ЮЗ 2 20 км 3/0
[Ci fib]
+20.2 +14.2 68 +23 +25 комфорт 1011.4 1013.9 +14.4
06 16.06 ЮЗ 1 20 км 3/0
[Ci fib]
+29.0 +8.4 27 +28 +43 жарко 1011.1 1013.6
09 16.06 ЮВ 5 20 км 3/0
[Ac trans Ci fib]
+30.4 +9.1 27 +30 +39 жарко 1010.4 1012.9
12 16.06 В 5 20 км 4/0
[Ac cast Ci sp]
+30.7 +5.7 21 +29 +34 жарко 1009.4 1011.9
15 16.06 ЮВ 7 20 км 8/0
[Ac cast Ci sp]
+27.4 +8.8 31 +27 +28 жарко 1009.1 1011.6 +31.5
18 16.06 Ю 3 20 км 5/0
[Ac cuf Ci sp]
+22.0 +13.9 60 +25 +25 комфорт 1008.7 1011.2
21 16.06 Ю 2 20 км ясно +18.3 +14.2 77 +19 +19 1007.5 1010.1
00 17.06 СВ 2 10 км ясно +18.2 +15.1 82 +19 +19 1008.3 1010.9
03 17.06 С 2 20 км 6/0
[Ac cast]
+23.3 +17.5 70 +29 +30 душно 1009.1 1011.6 +16.0
06 17.06 ЮВ 3 20 км 4/0
[Ac cast Ci sp]
+28.8 +15.3 44 +32 +40 душно 1009.3 1011.8
09 17.06 В 5 20 км 3/0
[Ci sp]
+32.1 +2.4 15 +29 +39 жарко 1009.0 1011.5
12 17.06 ЮВ 6 20 км 3/0
[Ac cast Ci sp]
+32.1 +1.2 14 +29 +33 жарко 1008.5 1011.0
15 17.06 ЮВ 6 20 км 6/0
[Ac cast Ci sp]
+29.0 +12.7 37 +30 +31 жарко 1008.6 1011.1 +32.5
18 17.06 В 1 20 км 8/3 1000 м
[Cb cap Ac cuf Ci sp]
+24.7 +17.1 63 +29 +29 душно 1010.3 1012.8
21 17.06 СВ 1 20 км 8/0
[Ac cuf Ci sp]
+22.9 +16.7 68 +28 +28 душно 1011.3 1013.8
00 18.06 штиль 0 20 км 6/0
[Ac cuf Ci sp]
+20.6 +15.7 73 +23 +23 комфорт 1010.9 1013.5
03 18.06 В 2 20 км 8/3 1000 м
[Cb cap Ac cuf Ci sp]
+24.5 +15.4 57 +27 +28 жарко 1010.9 1013.5 +19.7
06 18.06 ЮВ 2 20 км 3/0
[Ci fib]
+29.5 +15.3 42 +32 +44 душно 1011.2 1013.7
09 18.06 В 5 20 км 3/3 1000 м
[Cu hum]
+30.7 +16.6 43 +34 +41 очень
душно
1011.0 1013.5
12 18.06 В 8
{11}
20 км 4/4 1000 м
[Cb cap]
+31.2 +13.3 34 +32 +34 жарко 1010.3 1012.7
15 18.06 В 6
{11}
20 км 3/0
[Ac trans]
+29.0 +15.9 45 +32 +33 душно 1010.2 1012.7 +31.7
18 18.06 ЮВ 3 20 км 4/0
[Ac cuf]
+24.4 +17.1 64 +28 +28 душно 1011.0 1013.5
21 18.06 В 1 20 км 3/0
[Ac trans]
+22.6 +17.8 74 +28 +28 душно 1010.2 1012.8
00 19.06 ЮВ 2 10 км 3/0
[Ac trans]
+19.5 +17.0 85 +22 +22 комфорт 1010.0 1012.6
03 19.06 штиль 0 20 км 3/0
[Ac und]
+25.6 +20.1 72 +32 +34 очень
душно
1010.6 1013.1 +19.3
06 19.06 В 3 20 км 3/0
[Ac cast]
+31.0 +17.8 45 +35 +44 очень
душно
1010.5 1013.0
09 19.06 ЮВ 7 20 км 4/3 1000 м
[Cu med, cong Ci fib]
+32.8 +11.3 27 +33 +36 жарко 1009.9 1012.4
12 19.06 ЮВ 7-10
{11}
20 км 3/3 1000 м
[Cu med, cong]
+32.2 +11.5 28 +32 +34 жарко 1009.4 1011.9
15 19.06 ЮВ 7
{10}
20 км 3/3 1000 м
[Sc diur, vesp]
+30.3 +10.9 30 +30 +31 жарко 1008.9 1011.4 +33.1
18 19.06 ЮВ 3 20 км 3/0
[Ac trans]
+24.6 +17.0 63 +28 +28 душно 1009.2 1011.7
21 19.06 ЮВ 1 20 км 4/0
[Ac trans Ci fib]
+21.9 +16.8 73 +26 +26 душно 1009.4 1011.9
00 20.06 штиль 0 20 км 4/0
[Ac trans Ci fib]
+19.6 +16.0 80 +22 +22 комфорт 1009.4 1012.0
03 20.06 Ю 1 20 км 6/0
[Ac und]
+25.0 +18.1 66 +29 +31 душно 1009.8 1012.4 +18.3

 

Местоположение метеостанции Лагань (Калмыкия, Россия): широта 45.40 долгота 47.35 высота над уровнем моря -25 м.

В архиве по умолчанию представлена погода в Лагани за последнюю неделю. Архивные данные за месяц целиком и за предыдущие месяцы, начиная с января 2011 года, Вы можете получить, выбрав интересующий диапазон дат из раскрывающегося списка и нажав кнопку "Ввод!".


*Определитесь, кто Вы:
робот инопланетянин человек

Внимание! Время в таблицах - всемирное. Для получения местного времени необходимо прибавить поправку, которая равна 3 ч.

Смотрите также архив погоды в соседних городах и на ближайших метеорологических станциях:

Погода в Лимане (Астраханская область, Россия) (46 км)
Погода в Артезиане (Калмыкия, Россия) (70 км)
Погода в Комсомольском (Калмыкия, Россия) (103 км)
Погода на Острове Тюлений (Дагестан, Россия) (104 км)
Погода в Астрахани (Астраханская область, Россия) (109 км)
Погода в Кочубее (Дагестан, Россия) (128 км)
Погода в Зеленге (Астраханская область, Россия) (131 км)
Погода в Утте (Калмыкия, Россия) (149 км)
Погода в Южно-Сухокумске (Дагестан, Россия) (158 км)
Погода в Досанге (Астраханская область, Россия) (175 км)

Пояснения к столбцам:

Ветер - указаны скорость ветра в м/с - средняя за 10 мин, порывы в срок и между сроками (в фигурных скобках) и направление, откуда дует ветер: С - северный, СВ - северо-восточный, В - восточный, ЮВ - юго-восточный, Ю - южный, ЮЗ - юго-западный, З - западный, СЗ - северо-западный.
Видимость - горизонтальная дальность видимости в метрах или километрах. При видимости от 1 до 10 км при отсутствии осадков обычно наблюдается дымка, при ухудшении видимости до 1 км и менее - туман. В сухую погоду видимость может ухудшаться дымом, пылью или мглою.
Явления - указаны атмосферные явления, наблюдавшиеся в срок или в последний час перед сроком; фигурными скобками обозначены явления, наблюдавшиеся между сроками (за 1-3 часа до срока); квадратными скобками обозначены град или гололедные отложения с указанием их диаметра в мм.
Облачность - указаны через наклонную черту общая и нижняя облачность в баллах и высота нижней границы облаков в метрах; квадратными скобками обозначены формы облаков: Ci - перистые, Cs - перисто-слоистые, Cc - перисто-кучевые, Ac - высококучевые, As - высокослоистые, Sc - слоисто-кучевые, Ns - слоисто-дождевые, Cu - кучевые, Cb - кучево-дождевые. Подробнее классификацию облаков см. в Атласе облаков (PDF).
T - Температура воздуха - температура, измеренная на высоте 2 м над землей.
Td - Температура точки росы - температура, при понижении до которой содержащийся в воздухе водяной пар достигнет насыщения.
f - Относительная влажность воздуха - влажноcть воздуха, измеренная на высоте 2 м над землей.
Te - Эффективная температура - температура, которую ощущает одетый по сезону человек в тени. Характеристика душности погоды. При расчете учитывается влияние влажности воздуха и скорости ветра на теплоощущения человека.
Tes - Эффективная температура на солнце - температура, которую ощущает человек, с поправкой на солнечный нагрев. Характеристика знойности погоды. Зависит от высоты солнца над горизонтом, облачности и скорости ветра. Ночью, в пасмурную погоду, а также при ветре 12 м/с и более поправка равна нулю.
P - Атмосферное давление - приведенное к уровню моря атмосферное давление.
Po - Атмосферное давление - измеренное на уровне метеостанции атмосферное давление.
Tmin - Минимальная температура - минимум температуры воздуха на высоте 2 м над землей.
Tmax - Максимальная температура - максимум температуры воздуха на высоте 2 м над землей.
R - Количество осадков - Количество выпавших осадков за период времени, мм. При наведении курсора мыши на число - период времени, за который выпало указанное количество осадков.
R24 - Количество осадков - Количество выпавших осадков за 24 часа, мм.
S - Снежный покров - Высота снежного покрова, см. При наведении курсора мыши на число - состояние снежного покрова и степень покрытия местности в баллах.